Tracking 33197 objects as of 18-Feb-2026
HD Live streaming from Space Station
objects crossing your sky now

COSMOS 1275 DEB

Track COSMOS 1275 DEB now!
10-day predictions


NORAD ID: 12759
Int'l Code: 1981-053DC
Perigee: 851.6 km
Apogee: 916.8 km
Inclination: 82.9 °
Period: 102.5 minutes
Semi major axis: 7255 km
RCS: 0.0125 m2 (small)
Launch date: June 4, 1981
Source: Commonwealth of Independent States (former USSR) (CIS)
Launch site: PLESETSK MISSILE AND SPACE COMPLEX (PKMTR)

Note: This is SATELLITE DEBRIS
Your satellite tracking list
Your tracking list is empty




NASA's NSSDC Master Catalog

Two Line Element Set (TLE):
1 12759U 81053DC  26049.22940884  .00001170  00000-0  71340-3 0  9996
2 12759  82.8633 148.0253 0044939 237.3956 150.2596 14.04837622265551
Source of the keplerian elements: AFSPC